Location: Raitis
(47.2167°N, 11.3833°E)
Time: 17:07:16
(UTC+00:00)

USA 308 - Pass Details

Date: 03 March 2021
Orbit: 568 x 576 km, 54.0° (Epoch: 16 April)

Event Time Altitude Azimuth Distance (km) Brightness Sun altitude
Rises 18:27:26 0° 283° (WNW) 2,777 8.3 -15.1°
Reaches altitude 10° 18:29:52 10° 293° (WNW) 1,878 6.8 -15.6°
Maximum altitude 18:33:44 32° 358° (N) 986 4.2 -16.2°
Enters shadow 18:36:00 20° 48° (NE) 1,361 4.5 -16.6°
